STARLINK-31006, 59024

Orbit data source: Space-Track

STARLINK-31006, 59024 is a payload satellite owned by SpaceX/Seattle (US) in LEO that was launched on Sun, 25 Feb 2024 UTC via an FALCON 9 launch vehicle from the Air Force Eastern Test Range (AFETR). Payload-class satellites include a variety of spacecraft equipped with specific instruments for various scientific and technological missions. These include communications satellites like Starlink; space stations such as the ISS; scientific satellites like the Hubble; Earth observation satellites from companies like Planet Labs, Umbra, and HawkEye 360; GPS; miniature CubeSats for education and research; and military/defense satellites.

Loading next visibility...
Identifier
59024, 2024-038B
Orbit
LEO
Country
Flag of USUS
Related business
Manufacturer
SpaceX/Seattle
Mission
Operational Commercial Communications
Bus & Motor
STARLINK V2M, Unknown motor
Mass
730 kg wet, ~700 kg dry
Launch date (UTC)
2024-02-25 (2 years ago)
Launch vehicle
FALCON 9
Launch site
Air Force Eastern Test Range (AFETR)
Object type
Payload
Rocket body
Debris
Shape & HBR
Box + 2 Pan, 17.7 m
Radar Cross Section
33.884 m², Large (>1 m²)

Expand to show TLE details & history
Last TLE update: 1 day ago

TLE from 1 day ago
0 STARLINK-31006
1 59024U 24038B   25348.70643200 -.00001659  00000-0 -50808-4 0  9999
2 59024  43.0018  96.5455 0001454 272.5933  87.4752 15.27563722102340
Epoch: 2025-12-14T16:57Z
TLE epoch observation values (Epoch: 2025-12-14T16:57:15.724Z)
Latitude
-0.00004°
Longitude
118.61444°
Altitude
482.83 km
Speed
7.626 km/s
True Right ascension
06h 26m 10s
True Declination
0° 00' 00"
Sunlit
Object was in full shadow at epoch
Visualization orbit readout
Latitude
Unknown
Longitude
Unknown
Altitude
Unknown
Speed
Unknown
Apparent Right ascension
Unknown
Apparent Declination
Unknown
Sunlit
N/A
Visualization observer readout
Local Sidereal Time
15:11:33
Azimuth
Unknown
Elevation
Unknown
Doppler factor
Unknown
Orbital elements
Apogee altitude
486.041 km
Perigee altitude
484.045 km
Semi-major axis
6,863.18 km
Eccentricity
0.00015
Inclination
43.0018°
RAAN
96.5455°
Arg. of periapsis
272.5933°
True anomaly
87.49185°
Mean anomaly
87.4752°
Eccentric anomaly
87.48352°
Mean motion
3.81729 °/min
Orbital period
94.31 mins
BSTAR
-0.000050808
Loading maneuver chart data...
Computing Atmospheric mass density...
Loading historical data...
Loading historical data...
Loading historical data...
Loading historical data...
Loading historical data...
Loading historical data...
Loading historical data...

Documentation

Showing up to 5 results
|